EW2887 Weather Reports


Display with metric or nautical units.
time (UTC)temp
F
wind
direction
speed
MPH
gust
MPH
rain 1hr
in
rain 24hr
in
rain mn
in
humidity
%
barometer
mb
20260905001536 93 128 11.0 18.0 0.00 0.00 0.00 28 1004.3
20260905000135 94 360 11.0 19.0 0.00 0.00 0.00 27 1004.3
20260904234535 94 360 10.0 19.0 0.00 0.00 0.00 27 1004.0
20260904233034 95 130 14.0 18.0 0.00 0.00 0.00 26 1003.8
20260904231533 95 149 14.0 21.0 0.00 0.00 0.00 26 1003.9
20260904230034 95 132 13.0 22.0 0.00 0.00 0.00 26 1003.7
20260904224532 96 360 11.0 21.0 0.00 0.00 0.00 26 1003.7
20260904223043 96 360 12.0 22.0 0.00 0.00 0.00 27 1003.8
20260904221543 95 360 15.0 22.0 0.00 0.00 0.00 27 1003.9
20260904220029 96 124 14.0 25.0 0.00 0.00 0.00 27 1004.1
20260904214536 96 360 9.0 19.0 0.00 0.00 0.00 27 1004.1
20260904213028 97 144 10.0 19.0 0.00 0.00 0.00 26 1004.1
20260904211533 96 119 9.0 19.0 0.00 0.00 0.00 27 1004.3
20260904210025 97 360 9.0 15.0 0.00 0.00 0.00 26 1004.4
20260904204527 98 129 11.0 18.0 0.00 0.00 0.00 25 1004.5
20260904203029 98 182 11.0 16.0 0.00 0.00 0.00 26 1004.7
20260904201527 97 211 10.0 17.0 0.00 0.00 0.00 26 1005.0
20260904200018 97 115 6.0 13.0 0.00 0.00 0.00 27 1005.2
20260904194535 97 123 6.0 15.0 0.00 0.00 0.00 26 1005.3
20260904193027 96 163 4.0 13.0 0.00 0.00 0.00 28 1005.6
20260904191512 96 139 3.0 13.0 0.00 0.00 0.00 28 1005.7
20260904190011 95 207 8.0 14.0 0.00 0.00 0.00 29 1005.9
20260904184510 95 155 8.0 14.0 0.00 0.00 0.00 28 1006.2
20260904183008 95 210 11.0 17.0 0.00 0.00 0.00 29 1006.4
20260904181505 94 182 12.0 17.0 0.00 0.00 0.00 29 1006.5
20260904180005 94 202 11.0 18.0 0.00 0.00 0.00 30 1006.6
20260904174508 93 198 6.0 16.0 0.00 0.00 0.00 30 1006.8
20260904173004 93 169 9.0 15.0 0.00 0.00 0.00 31 1006.9
20260904171502 94 233 10.0 17.0 0.00 0.00 0.00 31 1006.9
20260904170059 93 248 7.0 14.0 0.00 0.00 0.00 33 1007.0
20260904164600 92 219 7.0 13.0 0.00 0.00 0.00 35 1007.1
20260904163055 90 201 10.0 14.0 0.00 0.00 0.00 37 1007.1
20260904161551 88 213 10.0 15.0 0.00 0.00 0.00 40 1007.1
20260904160048 87 197 11.0 16.0 0.00 0.00 0.00 41 1007.1
20260904154546 85 198 11.0 17.0 0.00 0.00 0.00 45 1007.0
20260904153043 84 209 11.0 18.0 0.00 0.00 0.00 48 1006.9
20260904151543 82 215 9.0 15.0 0.00 0.00 0.00 49 1007.0
20260904150037 81 165 9.0 15.0 0.00 0.00 0.00 50 1007.0
20260904144529 80 184 10.0 15.0 0.00 0.00 0.00 51 1007.1
20260904143026 78 192 7.0 12.0 0.00 0.00 0.00 56 1007.0
20260904141525 76 186 7.0 10.0 0.00 0.00 0.00 60 1006.9
20260904140025 74 159 8.0 11.0 0.00 0.00 0.00 63 1007.1
20260904134525 72 173 7.0 11.0 0.00 0.00 0.00 67 1007.1
20260904133024 70 171 3.0 6.0 0.00 0.00 0.00 71 1007.0
20260904131521 68 180 1.0 6.0 0.00 0.00 0.00 72 1006.9
20260904130020 68 173 7.0 11.0 0.00 0.00 0.00 72 1006.7
20260904124518 68 193 8.0 13.0 0.00 0.00 0.00 72 1006.6
20260904123015 68 201 10.0 14.0 0.00 0.00 0.00 74 1006.4
20260904121513 68 168 11.0 15.0 0.00 0.00 0.00 74 1006.3
20260904120013 69 185 10.0 15.0 0.00 0.00 0.00 74 1006.3
20260904114509 69 174 7.0 12.0 0.00 0.00 0.00 72 1006.2
20260904113026 70 173 7.0 14.0 0.00 0.00 0.00 71 1006.1
20260904111516 69 196 9.0 14.0 0.00 0.00 0.00 72 1006.2
20260904110004 70 360 10.0 14.0 0.00 0.00 0.00 69 1006.2
20260904104503 70 197 8.0 12.0 0.00 0.00 0.00 69 1006.0
20260904103001 70 209 8.0 13.0 0.00 0.00 0.00 69 1005.8
20260904101500 70 176 8.0 12.0 0.00 0.00 0.00 70 1005.8
20260904100107 70 184 6.0 12.0 0.00 0.00 0.00 69 1005.5
20260904094556 71 177 6.0 11.0 0.00 0.00 0.00 68 1005.5
20260904093057 72 186 6.0 13.0 0.00 0.00 0.00 66 1005.4
20260904091550 72 163 7.0 12.0 0.00 0.00 0.00 67 1005.4
20260904090052 72 159 7.0 14.0 0.00 0.00 0.00 66 1005.4
20260904084545 72 157 7.0 12.0 0.00 0.00 0.00 65 1005.4
20260904083043 72 173 8.0 14.0 0.00 0.00 0.00 65 1005.4
20260904081546 73 186 7.0 12.0 0.00 0.00 0.00 64 1005.6
20260904080049 72 171 7.0 13.0 0.00 0.00 0.00 64 1005.5
20260904074539 73 171 9.0 13.0 0.00 0.00 0.00 64 1005.5
20260904073046 73 180 8.0 17.0 0.00 0.00 0.00 62 1005.6
20260904071536 73 193 9.0 13.0 0.00 0.00 0.00 63 1005.6
20260904070037 73 183 8.0 17.0 0.00 0.00 0.00 62 1005.6
20260904064533 73 170 6.0 12.0 0.00 0.00 0.00 63 1005.7
20260904063031 74 165 9.0 14.0 0.00 0.00 0.00 61 1005.7
20260904061536 75 161 8.0 14.0 0.00 0.00 0.00 60 1005.9
20260904060027 74 182 8.0 15.0 0.00 0.00 0.00 60 1005.9
20260904054524 75 360 6.0 14.0 0.00 0.00 0.00 58 1005.8
20260904053023 75 175 8.0 15.0 0.00 0.00 0.00 57 1005.9
20260904051527 77 167 8.0 15.0 0.00 0.00 0.00 54 1006.0
20260904050012 78 144 9.0 18.0 0.00 0.00 0.00 51 1005.9
20260904044514 80 144 10.0 25.0 0.00 0.00 0.00 48 1005.8
20260904043012 80 146 10.0 20.0 0.00 0.00 0.00 46 1005.9
20260904041518 80 131 11.0 18.0 0.00 0.00 0.00 46 1005.7
20260904040010 80 123 11.0 17.0 0.00 0.00 0.00 46 1005.6
20260904034509 80 128 9.0 19.0 0.00 0.00 0.00 46 1005.5
20260904033008 80 360 9.0 17.0 0.00 0.00 0.00 46 1005.5
20260904031509 81 360 12.0 19.0 0.00 0.00 0.00 45 1005.6
20260904030007 81 360 14.0 21.0 0.00 0.00 0.00 42 1005.4
20260904024505 81 141 8.0 16.0 0.00 0.00 0.00 43 1005.0
20260904023005 81 142 8.0 15.0 0.00 0.00 0.00 44 1004.8
20260904021508 81 121 10.0 15.0 0.00 0.00 0.00 44 1004.7
20260904020005 81 360 14.0 19.0 0.00 0.04 0.00 44 1004.7
20260904014504 80 127 10.0 18.0 0.00 0.04 0.00 47 1004.6
20260904013003 80 127 12.0 25.0 0.00 0.04 0.00 47 1004.5
20260904011502 81 120 14.0 22.0 0.00 0.04 0.00 47 1004.3
20260904010002 81 360 18.0 27.0 0.00 0.11 0.00 47 1004.4
20260904004504 82 150 16.0 22.0 0.00 0.11 0.00 43 1004.4
20260904003002 82 146 12.0 27.0 0.00 0.11 0.00 45 1004.6